Regional Weather Roundup
Issued by NWS Newport/Morehead, NC

Current Version | Previous Version | Graphics & Text | Print | Product List | Glossary Off
Versions: 1 2 3 4 5 6 7 8 9 10 11 12 13 14 15 16 17 18 19 20 21 22 23 24 25 26 27 28 29 30 31 32 33 34 35 36 37 38 39 40 41 42 43 44 45 46 47 48 49 50

972
ASUS42 KMHX 310613
RWRMHX
WEATHER ROUNDUP FOR EASTERN NORTH CAROLINA
NATIONAL WEATHER SERVICE NEWPORT/MOREHEAD CITY NC
200 AM EDT TUE MAY 31 2016

NOTE: "FAIR" INDICATES FEW OR NO CLOUDS BELOW 12,000 FEET
WITH NO SIGNIFICANT WEATHER AND/OR OBSTRUCTIONS TO VISIBILITY

NCZ015>017-031-032-045>047-102-103-310700-
NORTH COAST

CITY           SKY/WX    TMP DP  RH WIND       PRES   REMARKS
EDENTON        CLOUDY   N/A N/A N/A CALM      29.94R
ELIZABETH CITY MOCLDY    69  68  96 NE5       29.93S
KITTY HAWK     FOG       68  68 100 CALM      29.91F VSB 1/2
MANTEO         NOT AVBL

$$

NCZ045>047-081-094-103-104-310700-
CENTRAL COAST

CITY           SKY/WX    TMP DP  RH WIND       PRES   REMARKS
FRISCO         CLOUDY    70  69  97 CALM      29.92S

$$

NCZ095-097-098-100-101-310700-
SOUTHERN COAST

CITY           SKY/WX    TMP DP  RH WIND       PRES   REMARKS
BEAUFORT       CLOUDY    74  71  91 SE3       29.90F
CEDAR ISLAND   NOT AVBL
JACKSONVILLE   MOCLDY    74  71  91 NE5       29.88F
PINEY ISLAND   CLOUDY   N/A N/A N/A E3        29.91F
WILMINGTON     PTCLDY    71  69  93 CALM      29.87F


$$

NCZ011>013-027>030-043-044-078>080-089-090>093-098-310700-
COASTAL PLAIN

CITY           SKY/WX    TMP DP  RH WIND       PRES   REMARKS
AHOSKIE        FOG       69  68  98 CALM      29.94F VSB 3/4
CLINTON        CLOUDY    72  72 100 N3        29.92S
ELIZABETHTOWN  CLOUDY    72  72 100 CALM      29.90F
GOLDSBORO      NOT AVBL
GREENVILLE     MOCLDY    70  70 100 CALM      29.94F
HAVELOCK       CLOUDY    71  70  96 CALM      29.91F
KENANSVILLE    CLOUDY    71  70  98 CALM      29.92F
KINSTON        MOCLDY    70  69  97 CALM      29.92F
NEW BERN       CLOUDY    71  69  93 N6        29.91F
RICHLANDS      CLOUDY    71  70  96 N5        29.90F
ROCKY MOUNT    CLOUDY    71  70  96 N3        29.94S
WASHINGTON     FOG       68  68  99 N5        29.92F VSB 1/4
WHITEVILLE     MOCLDY    71  70  96 CALM      29.88F

$$

AMZ130-135-150-152-154-156-158-170-250-252-270-ANZ085-086-088-633-658-670-310700-
MARINE OBSERVATIONS

STATION/POSITION TIME  TEMP    WIND        PRES    WAVE   SWELL
                       AIR SEA DIR/SP/G            HT/PER HT/PER
                 (UTC) (F)     (DEG/KT/KT) (MB)    (FT/S) (FT/S)
CHESAPEAKE LIGHT 0500   69      80/  9/ 10 1014.6
64 E VA BEACH    0550   67 64   60/ 10/ 10 1012.1    4/ 7   5/ 7
DUCK             0500   67 59   80/  3/  4 1012.9
2 E DUCK         0511      61                N/A     3/ 7
OREGON INLET     0500   70 73   40/  5/  6 1013.2
13E OREGON INLT  0500      65                N/A     5/ 7   5/ 7
HATTERAS CG      0500   72 74  240/  3/  3 1012.8
DIAMOND BUOY     0550   78 80  210/ 14/ 17 1012.7    6/ 8   5/ 8
CAPE LOOKOUT     0600   75     140/  8/  9 1012.0
BEAUFORT LAB     0500   75 76  150/  4/  5 1012.4
30 SE NEW RVR IN 0525      76                N/A     5/ 8
27 SE WRIGHTSVLE 0508   75 76   80/  4/  6 1011.9
5 SE WRIGHTSVLE  0508   75 76  110/ 10/ 14 1012.4
225 S CAPE HAT   0550   75 76  160/ 12/ 14 1014.6    4/ 8   3/ 8
41 SE CHARLESTON 0550   75 77  250/ 17/ 21 1010.4    4/ 8   3/ 8

$$




USA.gov is the U.S. government's official web portal to all federal, state and local government web resources and services.